DODECAPOLE 2 DEB, 41734

Orbit data source: Space-Track

DODECAPOLE 2 DEB, 41734 is space debris in LEO originally from a launch on Fri, 13 Aug 1965 UTC launched from the Air Force Western Test Range (AFWTR). Debris objects in space refer to the collection of defunct objects orbiting the Earth. Examples of debris include non-operational satellites, rocket bodies, and fragments generated from explosions, collisions, or faulty payload assembly.

Loading next visibility...
Identifier
41734, 1965-065U
Orbit
LEO
Country
Flag of USUS
Related business
Manufacturer
Unknown
Mission
Spacecraft
Bus & Motor
Unknown
Mass
Unknown
Launch date (UTC)
1965-08-13 (61 years ago)
Launch vehicle
Unknown
Launch site
Air Force Western Test Range (AFWTR)
Object type
Payload
Rocket body
Debris
Shape & HBR
Unknown shape, 0.1 m
Radar Cross Section
Medium (>0.1 m² and <1 m²)

Expand to show TLE details & history
Last TLE update: 23 hours ago

TLE from 23 hours ago
0 DODECAPOLE 2 DEB
1 41734U 65065U   26237.37288660  .00005434  00000-0  24294-2 0  9990
2 41734  90.0473  23.1384 0029358 240.8845 118.9407 14.22325678546154
Epoch: 2026-08-25T08:56Z
TLE epoch observation values (Epoch: 2026-08-25T08:56:57.402Z)
Latitude
Longitude
-84.74195°
Altitude
830.829 km
Speed
7.432 km/s
True Right ascension
01h 32m 33s
True Declination
0° 00' 00"
Sunlit
Object was in full shadow at epoch
Visualization orbit readout
Latitude
Unknown
Longitude
Unknown
Altitude
Unknown
Speed
Unknown
Apparent Right ascension
Unknown
Apparent Declination
Unknown
Sunlit
N/A
Visualization observer readout
Local Sidereal Time
23:18:35
Azimuth
Unknown
Elevation
Unknown
Doppler factor
Unknown
Orbital elements
Apogee altitude
835.559 km
Perigee altitude
793.327 km
Semi-major axis
7,192.58 km
Eccentricity
0.00294
Inclination
90.0473°
RAAN
23.1384°
Arg. of periapsis
240.8845°
True anomaly
119.23458°
Mean anomaly
118.9407°
Eccentric anomaly
119.08769°
Mean motion
3.55808 °/min
Orbital period
101.18 mins
BSTAR
0.0024294
Loading maneuver chart data...
Computing Atmospheric mass density...
Loading historical data...
Loading historical data...
Loading historical data...
Loading historical data...
Loading historical data...
Loading historical data...
Loading historical data...

Documentation

Showing up to 5 results
|